Location: Unspecified
(44.9196°N, 0.0000°E)
Time: 00:15:33
(UTC+00:00)

Envisat - Visible Passes

Search period start: 16 October 2019 00:00
Search period end: 26 October 2019 00:00
Orbit: 764 x 766 km, 98.1° (Epoch: 15 October)

Date Brightness Start Highest point End Pass type
(mag) Time Alt. Az. Time Alt. Az. Time Alt. Az.
16 Oct 6.7 05:27:22 10° ENE 05:28:24 11° E 05:29:27 10° E visible
16 Oct 3.6 18:19:31 10° S 18:24:32 62° W 18:29:36 10° NNW visible
17 Oct 3.0 17:42:47 10° SSE 17:47:47 63° ENE 17:52:49 10° N visible
17 Oct 5.8 19:23:58 10° SW 19:27:15 17° W 19:30:32 10° NW visible
18 Oct 4.6 18:45:30 10° SSW 18:50:09 36° W 18:54:50 10° NNW visible
19 Oct 3.2 18:08:11 10° S 18:13:15 78° WSW 18:18:22 10° NNW visible
20 Oct 3.2 17:31:40 10° SE 17:36:33 50° ENE 17:41:28 10° N visible
20 Oct 5.5 19:12:01 10° SW 19:15:52 21° W 19:19:43 10° NW visible
21 Oct 6.2 05:39:58 10° NE 05:42:52 15° E 05:45:44 10° ESE visible
21 Oct 4.2 18:33:59 10° S 18:38:50 45° W 18:43:43 10° NNW visible
22 Oct 3.0 17:56:55 10° SSE 18:01:59 85° ENE 18:07:06 10° NNW visible
22 Oct 6.1 19:39:38 10° WSW 19:41:41 12° W 19:43:44 10° WNW visible
23 Oct 5.2 19:00:15 10° SSW 19:04:30 27° W 19:08:46 10° NW visible
24 Oct 6.5 05:29:38 10° ENE 05:31:26 12° E 05:33:15 10° ESE visible
24 Oct 3.7 18:22:32 10° S 18:27:31 57° W 18:32:32 10° NNW visible
25 Oct 3.0 17:45:43 10° SSE 17:50:45 69° ENE 17:55:49 10° N visible
25 Oct 5.9 19:27:15 10° SW 19:30:16 16° W 19:33:17 10° NW visible
